User: anonymous   Login
Location: S�tio Afonso Gruber
(26.1760°S, 49.5250°W)
Time: 12:23:41
(UTC+00:00)
Language:

HuskySat-1 - Orbit

View from above orbital plane
View from above orbital plane
View from above satellite
View from above satellite

Ground track
Ground track

The orbit data is extracted from the following two-line orbital elements,

1 45117U 19071G   22341.97091092  .00143601  00000-0  12896-2 0  9998
2 45117  51.6308 268.1407 0010926 108.4374 251.7811 15.67221351160438
Epoch (UTC): 07 December 2022 23:18:06
Eccentricity: 0.0010926
inclination: 51.6308°
perigee height: 359 km
apogee height: 374 km
right ascension of ascending node: 268.1407°
argument of perigee: 108.4374°
revolutions per day: 15.67221351
mean anomaly at epoch: 251.7811°
orbit number at epoch: 16043

The dashed part of the orbit path shows where the satellite is in the earth's shadow,  

DLR